Find STARLINK-37268

NORAD ID: 70480 Constellation: starlink operational
LEOCIRCULARRETROGRADE

Live Position

Loading 3D Globe...

About STARLINK-37268

Description loading...

Upcoming Passes

Passes for default location (London). Set your location on the main map for personalized predictions.

Altitude History

Loading altitude history...

Two-Line Element Set

1 70480C 26082V 26106.32340278 -.00491760 00000+0 -54809-3 0 1068
2 70480 97.2886 327.8384 0009669 265.5586 316.2471 16.09639011 14
Epoch: Apr 16, 2026 • Age: 18 hours